Location: Beetenbrück
(52.8113°N, 9.5946°E)
Time: 21:29:04
(UTC+00:00)

Terra - Pass Details

Date: 14 April 2026
Orbit: 688 x 691 km, 97.9° (Epoch: 12 May)

Event Time Altitude Azimuth Distance (km) Brightness Sun altitude
Exits shadow 20:53:16 - 212° (SSW) 2,719 4.7 -20.0°
Reaches altitude 10° 20:55:09 10° 226° (SW) 2,140 4.3 -20.1°
Maximum altitude 20:58:27 19° 271° (W) 1,627 4.1 -20.5°
Drops below altitude 10° 21:01:47 10° 316° (NW) 2,151 5.5 -20.8°
Sets 21:04:40 0° 335° (NNW) 3,073 6.6 -21.0°
